Home > Weather > Asuncion > Past weeks

Flag for Paraguay Weather for the Past 2 Weeks in Asuncion, Paraguay

Now
90 °F

Scattered clouds.


Feels Like: 103 °F
Forecast: 77 / 96 °F
Wind: 7 mph from Northeast

Location: Asuncion / Aeropuerto

Current Time: Feb 7, 2016 at 12:46:48 PM

Latest Report: Feb 7, 2016 at 12:00 PM


Visibility: N/A

Pressure: 29.92 "Hg

Humidity: 67%

Dew point: 77 °F

Location of AsuncionLocation

Historic Weather in Asuncion — Graph

°F

Asuncion Temperature Yesterday

Maximum temperature yesterday: 93 °F (at 3:00 PM)
Minimum temperature yesterday: 77 °F (at 4:00 AM)
Average temperature yesterday: 81 °F

High & Low Weather Summary for the Past Weeks

 TemperatureHumidityPressure
High100 °F (Jan 25, 1:00 PM)100% (Jan 26, 9:30 AM)30.01 "Hg (Jan 26, 9:30 AM)
Low70 °F (Feb 3, 11:00 AM)28% (Jan 24, 12:00 PM)29.56 "Hg (Jan 24, 5:00 PM)
Average81 °F77%29.83 "Hg
* Reported Jan 23 12:00 Noon — Feb 7 12:00 Noon, Asuncion, Weather by CustomWeather, © 2016

Note: Actual official high and low records may vary slightly from our data, if they occured in-between our weather recording intervals... More about our weather records

Advertising

Asuncion Weather History for the Previous 24 Hours

 ConditionsComfort  
Time TempWeatherWind HumidityBarometerVisibility
12:00 PM
Sun, Feb 7
90 °FScattered clouds.7 mph67%29.92 "HgN/A
11:00 AM88 °FBroken clouds.7 mph75%29.92 "HgN/A
10:30 AM86 °FBroken clouds.7 mph75%29.92 "HgN/A
10:00 AM84 °FPassing clouds.7 mph84%29.92 "HgN/A
9:30 AM84 °FPassing clouds.7 mph79%29.92 "HgN/A
9:00 AM82 °FSunny.7 mph79%29.92 "Hg10 mi
8:30 AM82 °FSunny.6 mph79%29.92 "Hg10 mi
8:00 AM79 °FSunny.5 mph89%29.92 "Hg10 mi
7:00 AM75 °FSunny.No wind94%29.92 "Hg10 mi
6:00 AM75 °FClear.No wind94%29.89 "Hg10 mi
5:00 AM75 °FClear.2 mph94%29.89 "Hg10 mi
4:00 AM75 °FClear.2 mph100%29.89 "Hg10 mi
3:00 AM77 °FClear.3 mph89%29.89 "Hg10 mi
2:00 AM75 °FClear.No wind100%29.92 "Hg10 mi
1:00 AM77 °FPassing clouds.2 mph94%29.92 "HgN/A
12:00 AM77 °FPassing clouds.2 mph94%29.95 "HgN/A
11:00 PM
Sat, Feb 6
77 °FPartly cloudy.2 mph94%29.95 "HgN/A
10:00 PM77 °FThundershowers. Partly cloudy.6 mph94%29.92 "HgN/A
9:00 PM77 °FThunderstorms. Passing clouds.7 mph94%29.92 "HgN/A
8:00 PM77 °FThunderstorms. Passing clouds.8 mph89%29.92 "HgN/A
7:00 PM79 °FThundershowers. Partly sunny.13 mph84%29.92 "HgN/A
6:00 PM81 °FThunderstorms. Broken clouds.6 mph89%29.89 "HgN/A
5:00 PM81 °FThunderstorms. Broken clouds.7 mph89%29.89 "HgN/A
4:00 PM77 °FThunderstorms. Partly sunny.8 mph94%29.89 "Hg2 mi
3:00 PM93 °FPartly sunny.No wind63%29.92 "HgN/A
2:00 PM91 °FPartly sunny.5 mph63%29.95 "HgN/A
1:00 PM88 °FPartly sunny.7 mph70%29.98 "HgN/A
12:00 PM86 °FPartly sunny.5 mph79%29.98 "HgN/A
Weather by CustomWeather, © 2016

See weather overviewHow to use our weather pages